Lapse_Rate
7.0 7.1 7.1 7.0 6.9 6.7 6.6 6.6 6.4 6.4 6.4 6.3 6.3 6.4 6.2 6.2 6.3 6.5 6.2 6.1 6.0 6.1 6.1 6.1 6.0 6.0 6.2 6.6 6.7 6.8 6.5 7.4 7.8 7.9 7.8 7.8 7.6 7.6 7.1 6.8 7.1 7.2 7.3 6.5 5.8
7.1 7.1 7.0 6.9 6.9 6.6 6.4 6.4 6.3 6.3 6.3 6.2 6.2 6.2 6.1 6.1 6.2 6.0 6.0 6.0 6.1 6.1 6.1 5.9 5.8 6.0 6.0 6.3 6.6 6.5 6.6 7.3 7.3 7.1 7.1 7.3 7.4 7.5 7.3 7.0 7.2 7.2 7.3 7.0 7.1
7.1 7.0 7.0 6.9 6.6 6.5 6.3 6.4 6.3 6.3 6.2 6.0 6.1 6.1 6.1 6.0 6.0 5.9 5.9 5.9 6.0 6.0 6.0 5.9 5.8 6.0 5.7 6.2 5.9 6.2 6.6 7.0 6.7 6.7 6.7 6.7 6.8 6.9 6.9 6.9 7.1 7.3 7.4 6.8 6.8
7.0 6.9 6.9 6.7 6.4 6.3 6.3 6.3 6.3 6.2 6.1 6.0 6.0 5.9 5.9 5.9 5.4 5.7 5.8 5.9 6.0 6.0 6.0 5.9 5.5 5.2 5.5 5.8 5.7 6.3 6.3 6.3 6.5 6.5 6.6 6.6 6.5 6.5 6.6 6.6 6.8 6.9 7.0 7.0 6.8
7.0 6.8 6.8 6.4 6.4 6.2 6.2 6.1 6.1 6.2 6.1 6.0 5.9 5.9 5.9 5.6 5.6 5.6 5.7 5.8 5.8 5.8 5.9 5.9 5.5 5.6 5.7 5.7 5.7 5.9 6.1 6.1 6.3 6.3 6.4 6.3 6.4 6.4 6.5 6.6 6.6 6.7 6.8 6.9 6.8
7.0 6.7 6.5 6.5 6.4 6.3 6.2 6.1 6.1 6.1 6.1 6.0 5.9 5.8 5.9 5.2 5.6 5.7 5.7 5.7 5.6 5.6 5.7 5.8 5.7 5.8 5.8 5.7 5.8 5.9 5.8 6.0 6.3 6.3 6.3 6.2 6.4 6.3 6.7 6.7 6.4 6.5 6.9 7.0 6.9
6.8 6.7 6.6 6.8 6.7 6.7 6.4 6.1 6.1 6.1 6.1 6.0 5.8 5.7 5.7 5.5 5.6 5.6 5.5 5.6 5.4 5.5 5.6 5.7 5.7 5.9 5.8 5.9 6.3 6.4 6.1 6.3 6.6 6.5 6.4 6.2 6.5 6.8 6.8 6.7 6.6 6.7 6.7 6.8 6.8
6.6 6.7 6.9 6.8 7.1 6.9 6.4 6.2 6.2 6.2 6.1 5.9 5.8 5.6 5.0 5.5 5.5 5.5 5.5 5.4 5.4 5.5 5.7 5.7 5.9 6.0 5.9 5.9 6.2 6.4 6.7 7.3 7.0 6.4 6.4 6.1 6.8 7.0 6.8 6.6 6.4 6.5 6.8 6.8 6.9
6.7 6.8 6.9 6.9 7.2 7.0 6.6 6.4 6.2 6.1 6.0 5.9 5.7 5.5 5.2 5.5 5.5 5.4 5.4 5.3 5.4 5.5 5.8 5.8 6.0 5.9 5.7 6.3 7.2 7.4 7.5 7.3 7.1 6.8 6.4 6.2 6.4 6.5 6.5 6.4 6.2 6.3 6.5 6.7 7.0
6.8 6.9 6.9 6.9 7.2 7.1 6.9 6.6 6.4 6.2 6.0 5.9 5.7 5.6 5.7 5.6 5.5 5.4 5.3 5.3 5.4 5.4 5.7 5.9 5.9 5.9 6.5 6.5 7.0 6.9 7.0 7.1 7.3 7.0 6.4 6.4 6.4 6.1 5.9 5.6 5.8 6.0 6.3 6.7 6.9
6.7 6.8 6.9 6.9 7.1 7.0 7.1 6.8 6.5 6.2 6.1 6.0 5.6 5.8 5.8 5.7 5.6 5.5 5.3 5.4 5.7 5.2 5.6 5.7 6.0 6.5 6.3 6.1 6.2 6.4 6.9 7.1 7.1 6.5 6.2 6.4 6.2 5.8 5.6 5.5 5.4 5.4 5.9 6.4 6.9
6.6 6.7 6.8 6.9 6.9 6.9 7.0 7.0 6.6 6.4 6.2 6.1 5.9 5.8 5.8 5.8 5.6 5.3 5.3 5.2 5.4 5.6 5.7 6.0 6.6 6.1 6.2 6.1 6.3 6.6 7.0 7.2 6.9 6.5 6.3 6.4 6.2 6.1 5.7 5.5 5.4 5.6 5.6 5.8 6.0
6.4 6.5 6.6 6.7 6.8 6.9 6.9 6.9 6.8 6.6 6.1 6.1 6.0 5.9 5.8 5.7 5.6 5.3 5.6 5.6 5.5 5.5 5.8 6.2 6.4 6.4 5.9 6.3 6.5 6.7 6.7 6.5 6.5 6.7 6.3 6.7 6.2 6.2 5.8 5.3 5.2 5.5 5.6 5.6 5.8
6.4 6.4 6.5 6.6 6.7 6.7 6.8 6.8 6.8 6.6 6.3 6.2 6.1 6.0 5.9 5.9 5.9 5.8 5.7 5.8 5.5 5.5 6.0 6.2 6.3 6.3 6.1 6.4 6.0 6.5 6.5 5.9 6.3 6.7 7.6 6.5 8.0 6.8 6.0 5.9 5.7 5.6 5.6 5.6 6.0
6.3 6.3 6.4 6.4 6.5 6.5 6.6 6.7 6.6 6.3 7.7 6.6 6.4 6.3 6.2 6.0 5.9 6.0 5.9 5.8 5.6 5.6 5.9 6.2 6.4 6.3 6.0 6.1 6.2 6.4 5.9 6.5 6.3 6.8 7.0 7.2 6.8 7.2 6.2 6.5 6.3 5.9 6.3 6.6 6.8
6.5 6.4 6.3 6.4 6.4 6.5 6.5 6.5 6.4 6.3 7.4 6.6 6.5 6.4 6.3 6.2 6.1 6.0 6.0 5.9 5.9 6.1 6.1 6.1 6.3 6.3 6.2 6.5 6.2 6.0 6.5 6.6 6.4 7.0 8.1 7.2 6.4 7.5 5.8 5.4 5.8 5.7 6.4 6.9 6.9
6.3 6.5 6.4 6.4 6.4 6.4 6.4 6.4 6.2 6.9 6.9 6.4 6.6 6.5 6.3 5.9 5.9 6.1 5.8 5.6 5.7 6.0 6.3 6.1 5.8 6.3 6.3 6.0 6.3 6.2 6.8 7.1 7.7 7.7 8.1 7.0 6.9 6.5 6.1 5.8 5.9 5.9 7.0 7.1 6.9
6.3 6.3 6.4 6.5 6.5 6.4 6.3 6.2 6.5 7.0 6.8 6.8 6.8 6.7 6.1 6.4 6.3 6.2 5.5 5.9 5.4 5.3 5.7 6.0 6.5 6.1 6.2 6.1 6.1 6.0 6.1 6.0 5.8 7.1 7.1 6.6 6.8 6.4 6.1 5.7 6.1 6.0 7.0 7.0 7.1
6.2 6.4 6.4 6.3 6.4 6.3 6.3 6.0 7.3 7.1 6.7 6.8 6.6 6.4 6.3 6.4 6.4 6.0 5.7 5.7 5.8 5.5 5.4 5.7 6.2 6.2 6.3 6.3 6.3 6.3 6.3 6.1 5.7 5.9 6.2 7.5 7.6 6.5 6.1 6.0 6.3 6.5 6.9 7.2 7.3
6.3 6.2 6.4 6.4 6.3 6.2 5.9 6.4 6.7 6.9 6.9 6.8 6.5 6.4 6.6 6.0 6.1 6.0 5.7 5.8 5.6 5.5 5.2 5.3 5.9 6.0 6.2 6.2 6.4 6.3 6.3 6.5 6.7 6.2 7.4 9.1 7.9 7.3 6.5 6.0 6.1 6.5 6.4 6.7 7.0
6.2 6.3 6.6 6.4 6.3 6.0 5.7 6.4 6.4 6.8 6.8 6.7 6.4 6.4 6.3 6.1 6.2 5.9 5.9 6.1 5.7 5.4 5.1 4.9 5.2 6.1 6.1 5.9 6.2 6.4 6.6 6.6 6.4 6.6 7.5 8.2 7.8 6.5 6.2 6.0 5.9 6.1 6.2 6.1 6.4
6.0 6.1 6.7 6.7 6.3 6.2 5.8 6.1 6.5 6.7 6.7 6.6 6.6 6.5 6.3 6.4 6.4 6.1 5.8 5.7 5.9 5.4 4.9 5.0 5.1 5.9 6.4 6.3 6.2 6.2 6.1 6.3 6.8 7.2 7.2 7.0 7.5 6.4 6.4 5.8 6.0 6.2 6.1 6.4 6.4
6.3 6.0 6.2 6.7 6.2 5.8 6.1 6.0 6.5 6.6 6.7 6.6 6.6 6.5 6.6 6.3 6.1 6.2 6.1 6.1 6.1 5.5 4.8 5.0 5.6 6.2 6.0 6.0 6.1 6.0 6.0 6.1 6.1 6.2 7.4 7.5 7.8 6.9 6.6 6.1 6.0 6.0 6.3 6.3 6.5
5.5 5.6 6.0 6.2 6.5 6.2 6.2 6.5 6.7 6.9 6.7 6.6 6.6 6.7 6.6 6.3 6.2 6.2 6.2 6.2 5.6 5.8 5.4 5.2 5.2 5.6 6.7 6.4 5.8 5.9 6.0 5.7 6.0 6.5 7.4 7.7 7.2 6.8 6.6 6.5 6.4 6.2 6.3 5.9 6.0
5.7 5.7 5.8 6.1 6.1 6.4 6.6 6.2 6.9 6.7 6.7 6.6 6.6 6.7 6.6 6.3 6.2 6.1 5.9 6.3 6.0 5.7 5.7 5.4 5.4 5.6 5.6 5.9 5.6 5.6 5.9 5.7 5.9 6.3 6.5 7.2 6.7 6.7 6.5 6.6 6.5 6.4 6.3 6.3 6.0
6.0 5.9 5.8 5.9 6.2 6.8 6.9 6.8 6.5 6.9 6.8 6.8 6.7 7.0 6.7 6.4 6.3 6.4 6.2 6.1 5.7 5.8 5.5 5.6 5.3 5.8 5.5 5.8 6.0 5.9 5.9 5.8 5.8 6.1 6.3 6.4 6.6 6.5 6.7 6.7 6.6 6.5 6.6 6.4 6.3
5.1 5.3 6.0 6.1 6.1 6.1 6.9 7.2 6.7 7.1 7.4 7.0 7.1 6.7 6.6 6.5 6.2 6.3 6.1 6.2 6.2 5.8 5.6 5.1 5.1 5.5 6.5 6.0 5.8 6.4 6.4 6.3 6.0 6.4 6.6 6.7 6.7 6.8 6.7 6.6 6.6 6.6 6.5 6.6 6.4
Wind_Speed
12 12 13 12 12 13 13 14 14 13 12 13 13 14 14 16 18 8 9 6 7 11 12 3 3 1 4 3 6 5 6 11 13 13 11 9 8 12 2 11 8 4 8 6 10
11 11 12 13 13 13 13 14 14 13 13 13 12 13 12 13 10 10 4 2 7 10 6 7 5 2 2 2 4 6 8 12 10 10 11 12 12 12 12 10 15 12 7 2 8
11 11 11 13 14 13 14 14 14 14 14 12 12 13 11 10 9 6 4 2 6 11 5 6 4 4 3 4 3 3 11 9 9 10 12 14 15 14 15 16 17 15 10 10 7
11 11 12 14 15 14 14 14 14 14 13 12 12 12 12 8 2 5 3 2 7 8 7 6 5 4 5 5 2 8 7 7 10 9 10 13 14 16 16 15 15 15 16 14 11
12 13 14 15 16 15 14 14 14 15 13 12 11 9 7 5 6 6 2 4 5 5 7 8 7 5 7 7 7 9 8 10 11 12 13 14 16 16 16 15 14 15 17 18 14
13 15 16 17 17 16 15 15 15 14 13 11 8 7 6 2 3 1 2 2 4 6 6 7 6 7 8 9 8 9 12 13 11 9 11 12 14 14 12 4 9 12 16 15 15
14 16 17 18 18 16 16 15 12 9 8 7 6 4 8 6 1 3 1 2 2 5 7 4 6 7 9 10 4 10 10 11 1 5 10 8 14 16 12 6 10 11 11 12 11
14 16 18 18 19 17 16 10 5 1 3 4 4 7 2 3 2 3 2 1 2 2 4 4 4 6 5 9 10 7 7 8 9 4 3 5 12 10 4 10 10 14 13 11 10
15 17 18 19 19 17 14 4 2 2 3 3 5 6 4 4 3 3 3 6 4 3 3 3 5 5 7 9 10 6 12 12 8 2 5 7 15 13 13 14 14 15 14 15 11
16 18 19 19 19 16 11 7 3 4 4 4 4 6 4 2 3 3 1 4 4 5 9 6 5 9 3 10 9 15 15 13 11 9 11 11 13 11 10 11 12 12 13 15 14
15 18 20 20 20 14 7 4 4 5 7 5 4 2 2 5 3 3 2 5 6 9 6 1 9 6 9 9 11 13 14 14 11 7 10 11 8 5 6 5 8 12 11 13 13
14 17 20 21 22 13 7 4 3 4 3 2 2 3 1 3 5 4 7 6 8 8 7 7 3 6 9 11 13 15 12 13 7 3 8 12 4 3 10 12 15 11 11 11 11
14 17 19 22 18 7 5 2 2 3 4 6 3 4 1 5 4 2 7 8 7 7 6 8 6 6 9 11 13 14 9 15 15 13 7 16 8 8 17 13 15 18 19 15 13
12 16 18 23 4 1 1 1 2 4 5 10 6 4 4 3 4 1 3 3 3 5 8 6 3 6 10 10 12 11 17 13 8 7 7 10 2 7 16 15 18 16 16 16 13
11 14 18 13 6 2 3 1 2 3 5 6 5 3 1 4 3 4 1 4 5 5 4 5 6 8 9 11 11 10 14 8 6 9 7 12 5 5 19 16 22 20 15 14 12
11 11 18 4 4 2 1 2 3 5 4 6 4 3 5 2 2 4 2 3 2 4 6 5 3 3 7 14 7 14 14 5 6 8 1 13 5 5 12 12 17 16 16 14 15
9 10 9 6 1 2 3 4 5 7 3 7 5 3 3 2 3 2 2 5 5 4 1 5 4 1 6 13 3 15 14 3 2 4 7 13 3 7 12 11 11 12 14 14 13
10 9 5 7 4 3 4 5 9 3 5 4 4 5 5 1 3 1 3 2 3 6 5 4 4 4 8 6 7 8 7 3 2 5 6 8 8 6 9 5 8 14 14 13 14
7 5 4 4 8 4 6 9 9 3 7 9 5 7 6 4 4 4 1 1 3 6 6 4 0 3 4 4 7 9 7 3 2 5 5 2 9 5 10 14 16 16 16 16 14
4 5 7 9 10 6 7 14 3 3 5 9 8 6 6 7 5 3 2 3 2 2 6 3 4 3 2 2 3 4 3 2 1 4 5 3 9 8 14 15 15 17 16 14 13
6 4 6 10 6 6 11 17 5 7 7 7 7 6 5 5 4 3 2 5 2 3 4 4 3 5 3 1 5 2 2 3 3 2 4 7 7 8 10 10 12 13 11 13 13
6 6 8 9 8 8 14 12 2 11 6 4 3 6 8 7 5 4 2 1 3 1 4 3 5 4 2 4 1 3 4 6 4 6 4 4 4 7 7 8 9 10 10 10 11
5 6 4 8 9 13 11 6 8 10 10 9 9 7 4 7 5 5 4 4 4 2 3 1 3 5 8 4 3 4 1 4 6 4 7 4 4 4 5 8 7 9 10 9 10
6 7 5 7 12 14 18 15 10 11 9 6 7 8 8 7 4 5 5 4 4 3 2 1 6 8 7 7 5 9 8 6 6 4 8 3 5 4 4 4 7 8 8 9 8
7 13 12 10 16 16 16 12 19 10 8 12 7 12 11 7 7 6 7 6 5 5 3 4 6 6 11 11 11 13 12 12 13 12 7 8 6 3 1 4 6 8 8 9 10
10 8 8 12 20 24 17 20 21 18 16 12 12 17 14 8 8 9 11 8 5 7 6 4 4 6 12 7 5 10 9 10 12 12 12 13 12 0 6 7 7 8 9 9 9
6 8 6 12 16 18 24 24 23 17 14 13 18 11 16 14 6 6 4 3 1 5 8 4 3 4 3 2 8 11 4 11 12 7 9 6 5 8 7 7 8 9 9 10 10
Wind_Direction
328 332 321 325 324 324 320 318 315 314 318 320 326 330 332 328 302 239 44 17 333 326 306 255 233 322 226 215 258 262 254 258 265 273 288 282 277 275 284 289 256 268 292 38 124
329 327 328 325 324 320 317 313 310 314 316 310 326 323 324 330 284 62 77 336 317 317 328 353 356 269 221 240 221 242 255 278 346 327 299 291 292 293 277 255 253 234 222 315 122
330 324 330 325 322 319 314 311 311 311 303 317 323 311 326 324 262 54 100 324 313 289 337 325 325 295 277 268 221 250 263 328 304 301 306 293 282 277 271 266 265 276 268 146 210
329 326 334 326 321 319 313 314 311 304 305 314 309 312 324 255 17 71 103 303 300 301 303 330 311 279 284 284 270 275 240 288 296 294 294 281 292 281 275 276 285 281 274 274 214
325 339 333 327 323 318 319 314 304 298 300 300 302 311 286 207 75 109 205 231 278 317 349 349 331 331 286 315 292 252 290 305 289 283 275 277 271 275 275 271 267 259 255 257 257
337 340 331 327 325 328 322 309 299 292 287 289 290 298 250 209 83 88 0 287 336 322 346 339 348 333 289 298 286 343 301 291 281 280 289 272 281 278 272 270 277 261 253 250 249
340 336 330 330 334 329 319 310 300 284 267 265 269 269 254 64 44 329 244 333 321 325 323 338 320 298 337 302 326 295 287 276 8 330 304 325 275 250 251 243 275 275 246 234 253
337 330 330 335 334 326 322 315 356 98 195 227 263 256 25 114 340 225 310 240 277 284 296 308 298 288 288 309 253 271 254 340 15 331 20 286 300 314 353 300 287 286 291 281 233
332 328 329 337 330 326 317 285 56 116 188 232 244 246 128 147 224 356 320 318 322 255 270 263 258 287 264 279 274 202 337 341 327 304 293 278 301 301 309 315 304 294 278 263 257
328 324 329 330 329 324 302 253 265 244 219 232 260 246 161 348 344 317 359 298 289 268 229 242 246 261 337 355 347 324 327 324 318 350 341 307 319 332 358 322 302 298 277 273 258
327 327 328 328 326 322 287 216 205 184 212 330 38 343 67 338 193 195 352 295 246 243 332 265 281 7 340 338 323 308 306 303 347 20 326 356 324 33 20 347 345 337 316 304 291
326 327 327 330 322 310 282 269 12 356 175 199 284 271 316 340 256 193 325 316 316 297 303 222 263 4 316 307 311 313 316 339 304 214 303 336 223 148 46 28 358 329 324 307 291
321 325 328 329 320 289 54 40 318 273 235 175 223 275 327 287 293 339 348 320 311 286 333 294 18 332 315 316 340 325 346 326 303 313 243 333 185 225 25 21 8 349 344 317 317
314 322 328 331 303 351 44 71 259 275 231 159 198 165 201 285 225 360 19 313 249 318 322 283 25 312 322 324 344 306 359 322 289 290 347 27 321 62 17 5 358 353 336 325 323
303 318 322 327 328 282 36 236 214 244 259 137 147 75 205 258 342 146 140 244 302 328 282 69 327 329 310 347 330 312 324 323 305 285 324 12 317 335 15 351 340 338 348 339 326
287 311 323 226 233 62 297 196 236 229 231 151 146 184 227 215 181 312 290 220 285 275 217 286 329 288 324 315 294 300 309 216 277 265 255 15 16 338 10 336 325 351 350 352 340
271 297 302 301 14 134 175 206 219 246 145 157 174 195 241 191 187 315 351 37 18 306 41 264 172 10 323 322 189 354 352 5 333 3 26 2 326 43 351 352 357 349 359 356 352
264 291 205 268 203 200 206 220 248 5 179 101 155 165 221 191 175 270 237 175 99 328 284 321 194 4 9 4 326 333 334 36 298 353 330 312 5 14 334 82 47 15 16 15 5
264 216 233 187 195 226 231 218 250 179 139 161 152 210 181 198 277 241 296 72 50 5 343 326 290 120 23 336 342 353 13 358 299 209 264 231 64 165 26 23 24 30 15 18 8
226 225 218 157 186 217 236 237 204 134 138 177 218 217 201 178 217 225 193 105 146 1 326 57 282 125 40 260 194 326 331 263 130 335 324 26 60 5 6 11 18 28 21 11 12
235 215 119 169 180 216 229 230 187 184 173 195 219 187 225 185 233 211 122 135 193 157 306 312 265 139 189 179 345 246 353 343 270 351 331 322 69 11 12 19 25 40 24 19 22
230 220 150 178 200 215 229 216 166 178 180 176 233 229 203 180 197 219 225 36 120 249 294 45 312 281 9 99 226 308 337 325 329 345 303 264 71 30 37 53 37 60 38 38 44
214 197 175 198 213 212 217 195 207 176 192 183 189 196 182 188 204 211 190 89 148 225 323 52 202 279 158 169 177 240 319 294 305 267 276 315 68 34 56 74 62 65 59 54 50
228 193 167 210 244 239 207 210 198 204 194 191 163 161 167 188 185 178 205 157 184 227 9 297 265 266 296 340 311 285 289 238 287 274 341 298 358 84 73 91 98 92 93 85 65
222 222 191 196 210 213 225 205 199 178 213 188 184 199 179 178 181 203 204 152 184 163 211 251 263 266 278 280 277 279 273 265 243 255 280 356 316 357 110 129 118 127 126 111 98
197 225 212 227 199 204 211 213 205 185 169 194 222 197 193 185 193 187 175 194 200 181 198 199 279 289 288 253 246 262 259 246 243 253 260 275 283 84 133 136 150 142 141 136 126
251 208 236 211 208 197 212 210 202 186 204 194 200 184 199 204 158 111 139 124 152 187 201 219 274 299 272 212 282 265 270 231 230 231 231 256 52 153 170 175 170 156 158 151 147